Anoka County, MN

4:27 PM CDT on April 20, 2018 (GMT -0500)
Anoka County / Blaine Airport

Weather History for KANE - November, 2012

Change the Weather History Date:

Wednesday, November 7, 2012

  Actual Average Record
Temperature  
Mean Temperature 40 °F -  
Max Temperature 46 °F 43 °F 64 °F (2016)
Min Temperature 35 °F 28 °F 12 °F (2003)
Degree Days  
Heating Degree Days 24    
Moisture  
Dew Point 36 °F    
Average Humidity 86    
Maximum Humidity 100    
Minimum Humidity 62    
Precipitation  
Precipitation 0.00 in - - ()
Sea Level Pressure  
Sea Level Pressure 30.05 in    
Wind  
Wind Speed 5 mph (WSW)    
Max Wind Speed 8 mph    
Max Gust Speed -    
Visibility 10 miles    
Events      
Averages and records for this station are not official NWS values.
T = Trace of Precipitation, MM = Missing Value Source: NWS Daily Summary

Daily Weather History Graph

Daily Weather History Graph

Search for Another Location

Airport or City:

Astronomy

Nov. 07, 2012 Rise Set
Actual Time 7:00 AM CST 4:51 PM CST
Civil Twilight 6:29 AM CST 5:23 PM CST
Nautical Twilight 5:54 AM CST 5:58 PM CST
Astronomical Twilight 5:19 AM CST 6:32 PM CST
Moon No Moon Rise 1:18 PM CST (11/7)
Length of Visible Light 10h 53m
Length of Day
9h 51m
Last Quarter, 43% of the Moon is Illuminated
Nov 7
Last Quarter
Nov 13
New
Nov 20
First Quarter
Nov 28
Full
Dec 6
Last Quarter

Hourly Weather History & Observations

Time (CST) Temp. Windchill Dew Point Humidity Pressure Visibility Wind Dir Wind Speed Gust Speed Precip Events Conditions
12:13 AM 39.2 °F 34.2 °F 35.6 °F 87% 29.97 in 10.0 mi NNW 6.9 mph - N/A   Overcast
12:34 AM 39.2 °F 34.2 °F 35.6 °F 87% 29.98 in 10.0 mi NW 6.9 mph - N/A   Overcast
12:54 AM 39.2 °F 33.6 °F 35.6 °F 87% 29.99 in 10.0 mi NW 8.1 mph - N/A   Overcast
1:14 AM 39.2 °F 33.6 °F 37.4 °F 93% 29.99 in 10.0 mi NW 8.1 mph - N/A   Overcast
1:34 AM 39.2 °F 34.2 °F 37.4 °F 93% 30.00 in 10.0 mi NW 6.9 mph - N/A   Overcast
1:53 AM 39.2 °F 35.9 °F 35.6 °F 87% 30.00 in 10.0 mi NNW 4.6 mph - N/A   Overcast
2:14 AM 39.2 °F 37.0 °F 35.6 °F 87% 30.00 in 10.0 mi NW 3.5 mph - N/A   Overcast
2:53 AM 37.4 °F - 35.6 °F 93% 30.01 in 10.0 mi Calm Calm - N/A   Overcast
3:14 AM 39.2 °F 35.9 °F 37.4 °F 93% 30.02 in 10.0 mi WNW 4.6 mph - N/A   Overcast
3:34 AM 39.2 °F 35.0 °F 37.4 °F 93% 30.03 in 10.0 mi WNW 5.8 mph - N/A   Overcast
3:53 AM 39.2 °F 35.9 °F 37.4 °F 93% 30.03 in 10.0 mi NW 4.6 mph - N/A   Overcast
4:14 AM 39.2 °F 35.9 °F 37.4 °F 93% 30.04 in 10.0 mi WNW 4.6 mph - N/A   Overcast
4:34 AM 39.2 °F 37.0 °F 35.6 °F 87% 30.04 in 10.0 mi NW 3.5 mph - N/A   Overcast
4:54 AM 39.2 °F 37.0 °F 37.4 °F 93% 30.05 in 10.0 mi WNW 3.5 mph - N/A   Overcast
5:14 AM 39.2 °F - 37.4 °F 93% 30.05 in 10.0 mi Calm Calm - N/A   Overcast
5:34 AM 39.2 °F - 37.4 °F 93% 30.06 in 10.0 mi Calm Calm - N/A   Overcast
5:54 AM 39.2 °F 37.0 °F 37.4 °F 93% 30.06 in 10.0 mi WNW 3.5 mph - N/A   Overcast
6:14 AM 39.2 °F 37.0 °F 37.4 °F 93% 30.06 in 10.0 mi West 3.5 mph - N/A   Overcast
6:33 AM 39.2 °F - 35.6 °F 87% 30.06 in 10.0 mi Calm Calm - N/A   Overcast
6:52 AM 35.6 °F 32.8 °F 35.6 °F 100% 30.07 in 10.0 mi SSW 3.5 mph - N/A   Overcast
6:54 AM 39.2 °F 37.0 °F 35.6 °F 87% 30.07 in 10.0 mi West 3.5 mph - N/A   Overcast
7:50 AM 39.2 °F 37.0 °F 37.4 °F 93% 30.09 in 10.0 mi WNW 3.5 mph - N/A   Overcast
8:19 AM 39.2 °F 37.0 °F 37.4 °F 93% 30.09 in 10.0 mi WNW 3.5 mph - N/A   Overcast
8:50 AM 41.0 °F 37.1 °F 37.4 °F 87% 30.10 in 10.0 mi WNW 5.8 mph - N/A   Overcast
9:45 AM 41.0 °F 39.0 °F 37.4 °F 87% 30.11 in 10.0 mi WNW 3.5 mph - N/A   Mostly Cloudy
11:47 AM 44.6 °F - 37.4 °F 76% 30.09 in 10.0 mi Calm Calm - N/A   Mostly Cloudy
12:50 PM 46.4 °F - 35.6 °F 66% 30.07 in 10.0 mi Calm Calm - N/A   Mostly Cloudy
1:45 PM 46.4 °F - 33.8 °F 62% 30.06 in 10.0 mi Calm Calm - N/A   Overcast
2:50 PM 46.4 °F 43.5 °F 33.8 °F 62% 30.06 in 10.0 mi SSW 5.8 mph - N/A   Overcast
3:50 PM 46.4 °F 43.5 °F 33.8 °F 62% 30.06 in 10.0 mi South 5.8 mph - N/A   Overcast
6:55 PM 42.8 °F 38.6 °F 35.6 °F 76% 30.06 in 10.0 mi SE 6.9 mph - N/A   Mostly Cloudy
7:50 PM 39.2 °F 35.0 °F 33.8 °F 81% 30.06 in 10.0 mi SSE 5.8 mph - N/A   Scattered Clouds
8:45 PM 41.0 °F 35.8 °F 35.6 °F 81% 30.05 in 10.0 mi SSE 8.1 mph - N/A   Clear
9:14 PM 39.2 °F 35.9 °F 35.6 °F 87% 30.05 in 10.0 mi SE 4.6 mph - N/A   Clear
9:34 PM 39.2 °F 35.9 °F 35.6 °F 87% 30.05 in 10.0 mi SE 4.6 mph - N/A   Clear
9:54 PM 39.2 °F 35.0 °F 35.6 °F 87% 30.05 in 10.0 mi SSE 5.8 mph - N/A   Clear
10:14 PM 37.4 °F 32.8 °F 35.6 °F 93% 30.05 in 10.0 mi SSE 5.8 mph - N/A   Clear
10:34 PM 39.2 °F 34.2 °F 35.6 °F 87% 30.05 in 10.0 mi SSE 6.9 mph - N/A   Clear
10:54 PM 39.2 °F 34.2 °F 35.6 °F 87% 30.05 in 10.0 mi SSE 6.9 mph - N/A   Clear
11:14 PM 37.4 °F 33.8 °F 33.8 °F 87% 30.05 in 10.0 mi SSE 4.6 mph - N/A   Clear
11:33 PM 39.2 °F 34.2 °F 33.8 °F 81% 30.05 in 10.0 mi SSE 6.9 mph - N/A   Clear
11:54 PM 39.2 °F 33.6 °F 33.8 °F 81% 30.04 in 10.0 mi SSE 8.1 mph - N/A   Clear